Weather History for KAND - October, 2013

Change the Weather History Date:

Tuesday, October 15, 2013

  Actual Average Record
Temperature  
Mean Temperature 64 °F -  
Max Temperature 69 °F 75 °F 87 °F (1950)
Min Temperature 59 °F 50 °F 33 °F (1988)
Degree Days  
Heating Degree Days 2    
Growing Degree Days 14 (Base 50)    
Moisture  
Dew Point 58 °F    
Average Humidity 83    
Maximum Humidity 96    
Minimum Humidity 65    
Precipitation  
Precipitation 0.00 in - - ()
Sea Level Pressure  
Sea Level Pressure 30.13 in    
Wind  
Wind Speed 7 mph (NE)    
Max Wind Speed 12 mph    
Max Gust Speed -    
Visibility 10 miles    
Events      
Averages and records for this station are not official NWS values.
T = Trace of Precipitation, MM = Missing Value Source: NWS Daily Summary

Daily Weather History Graph

Daily Weather History Graph

Search for Another Location

Airport or City:

Trip Planner

Search our weather history database for the weather conditions in past years. The results will help you decide how hot, cold, wet, or windy it might be!

Date:

Astronomy

Oct. 15, 2013 Rise Set
Actual Time 7:36 AM EDT 6:56 PM EDT
Civil Twilight 7:11 AM EDT 7:21 PM EDT
Nautical Twilight 6:41 AM EDT 7:50 PM EDT
Astronomical Twilight 6:12 AM EDT 8:19 PM EDT
Moon 4:53 PM EDT (10/15) 4:06 AM EDT (10/15)
Length of Visible Light 12h 10m
Length of Day
11h 19m
Waxing Gibbous, 87% of the Moon is Illuminated
Oct 15
Waxing Gibbous
Oct 18
Full
Oct 26
Last Quarter
Nov 3
New
Nov 10
First Quarter

Hourly Weather History & Observations

Time (EDT) Temp. Dew Point Humidity Pressure Visibility Wind Dir Wind Speed Gust Speed Precip Events Conditions
12:10 AM 64.4 °F 60.8 °F 88% 30.19 in 10.0 mi East 5.8 mph - N/A   Mostly Cloudy
12:49 AM 62.6 °F 60.8 °F 94% 30.19 in 10.0 mi East 11.5 mph - N/A   Overcast
12:56 AM 64.0 °F 60.1 °F 87% 30.17 in 10.0 mi East 10.4 mph - N/A   Overcast
1:40 AM 62.6 °F 59.0 °F 88% 30.18 in 10.0 mi ENE 8.1 mph - N/A   Scattered Clouds
1:56 AM 61.0 °F 59.0 °F 93% 30.17 in 10.0 mi ENE 5.8 mph - N/A   Clear
2:56 AM 61.0 °F 59.0 °F 93% 30.16 in 10.0 mi ENE 5.8 mph - N/A   Scattered Clouds
3:56 AM 62.1 °F 59.0 °F 90% 30.15 in 10.0 mi NE 3.5 mph - N/A   Overcast
4:56 AM 63.0 °F 60.1 °F 90% 30.14 in 10.0 mi NE 5.8 mph - N/A   Overcast
5:56 AM 62.1 °F 59.0 °F 90% 30.14 in 10.0 mi NE 5.8 mph - N/A   Overcast
6:56 AM 62.1 °F 57.9 °F 86% 30.15 in 10.0 mi NE 4.6 mph - N/A   Overcast
7:54 AM 60.8 °F 57.2 °F 88% 30.18 in 10.0 mi NE 6.9 mph - N/A   Overcast
7:56 AM 61.0 °F 57.0 °F 87% 30.16 in 10.0 mi NE 6.9 mph - N/A   Overcast
8:56 AM 61.0 °F 55.9 °F 83% 30.16 in 10.0 mi ENE 9.2 mph - N/A   Overcast
9:56 AM 62.1 °F 57.0 °F 84% 30.17 in 10.0 mi ENE 9.2 mph - N/A   Overcast
10:56 AM 64.0 °F 57.0 °F 78% 30.16 in 10.0 mi ENE 8.1 mph - N/A   Overcast
11:56 AM 64.9 °F 57.0 °F 75% 30.15 in 10.0 mi NE 6.9 mph - N/A   Overcast
12:56 PM 66.0 °F 57.0 °F 73% 30.14 in 10.0 mi NE 6.9 mph - N/A   Overcast
1:56 PM 66.0 °F 57.0 °F 73% 30.11 in 10.0 mi ENE 8.1 mph - N/A   Overcast
2:56 PM 66.0 °F 57.0 °F 73% 30.09 in 10.0 mi ENE 6.9 mph - N/A   Overcast
3:47 PM 68.0 °F 57.2 °F 68% 30.09 in 10.0 mi NE 5.8 mph - N/A   Mostly Cloudy
3:56 PM 68.0 °F 57.0 °F 68% 30.07 in 10.0 mi ENE 8.1 mph - N/A   Scattered Clouds
4:10 PM 66.2 °F 57.2 °F 73% 30.09 in 10.0 mi NE 6.9 mph - N/A   Mostly Cloudy
4:20 PM 68.0 °F 57.2 °F 68% 30.08 in 10.0 mi NNE 6.9 mph - N/A   Scattered Clouds
4:56 PM 68.0 °F 55.9 °F 65% 30.07 in 10.0 mi NNE 3.5 mph - N/A   Partly Cloudy
5:56 PM 66.9 °F 57.0 °F 70% 30.06 in 10.0 mi NNW 3.5 mph - N/A   Clear
6:56 PM 64.0 °F 57.9 °F 80% 30.07 in 10.0 mi NNW 3.5 mph - N/A   Clear
7:56 PM 61.0 °F 57.9 °F 90% 30.07 in 10.0 mi North 3.5 mph - N/A   Clear
8:56 PM 59.0 °F 57.9 °F 96% 30.08 in 10.0 mi North 3.5 mph - N/A   Clear
9:56 PM 60.1 °F 57.9 °F 93% 30.08 in 10.0 mi Calm Calm - N/A   Clear
10:56 PM 60.1 °F 57.9 °F 93% 30.09 in 10.0 mi North 3.5 mph - N/A   Clear
11:56 PM 59.0 °F 57.0 °F 93% 30.08 in 10.0 mi Calm Calm - N/A   Clear